Regional Weather Roundup
Issued by NWS Sterling, VA

Home | Current Version | Previous Version | Text Only | Print | Product List | Glossary On
Versions: 1 2 3 4 5 6 7 8 9 10 11 12 13 14 15 16 17 18 19 20 21 22 23 24 25 26 27
000
ASUS41 KLWX 182211
RWRLWX

REGIONAL WEATHER ROUNDUP
NATIONAL WEATHER SERVICE BALTIMORE MD/WASHINGTON DC
600 PM EDT FRI AUG 18 2017

Note: "FAIR" indicates few or no clouds below 12,000 feet
with no significant weather and/or obstructions to visibility.
 TC=TEMPERATURE CELSIUS

 * =Non NWS site. Station does not report precipitation (e.g. rain,
    snow, etc.), thunder, or fog.

DCZ001-MDZ009-015-VAZ040>042-051-053>054-182300-
WASHINGTON METRO

CITY           SKY/WX    TMP DP  RH WIND       PRES   REMARKS
WASHINGTON NAT TSTM      81  77  88 SW22G29   29.76S FOG
DULLES         TSTM      76  76 100 W24G31    29.80R VSB 3/4
ANDREWS AFB    CLOUDY    84  77  79 SW10G23   29.76R THUNDER HX  94
FT BELVOIR     CLOUDY    84  72  67 W6        29.76R THUNDER
QUANTICO       CLOUDY    82  79  90 SE7       29.75F THUNDER HX  92
COLLEGE PARK*  CLOUDY    85  74  68 W7G22     29.73S HX  92
LEESBURG*      MOSUNNY   79  79 100 CALM      29.80F
MANASSAS*      CLOUDY    82  76  81 W6        29.77R
GAITHERSBURG*  RAIN      76  74  93 NW10      29.78S FOG

$$

MDZ006>007-011-014-182300-
BALTIMORE METRO

CITY           SKY/WX    TMP DP  RH WIND       PRES   REMARKS
BWI AIRPORT    TSTM      76  76 100 W12G24    29.76R FOG
MD SCIENCE CTR   N/A     78  73  84 MISG      29.69F
MARTIN STATE   TSTM      84  82  94 W12       29.79R HX 101
ANNAPOLIS      MOSUNNY   87  83  87 S15G24    29.73S HX 108
FORT MEADE*    CLOUDY    82  72  69 N10G18    29.76R

$$

MDZ012-015-019>023-182300-
MARYLAND EASTERN SHORE

CITY           SKY/WX    TMP DP  RH WIND       PRES   REMARKS
OCEAN CITY     MOSUNNY   83  80  91 SW10G26   29.81S HX  95
SALISBURY      MOSUNNY   87  81  82 S12       29.79S HX 104
BAY BRIDGE AP* CLOUDY    88  79  74 S15G22    29.75R HX 102
CAMBRIDGE*     SUNNY     90  79  70 S9G15     29.78R HX 105
EASTON*        MOSUNNY   91  79  66 S12       29.80S HX 107

$$

MDZ017>025-182300-
SOUTHERN MARYLAND

CITY           SKY/WX    TMP DP  RH WIND       PRES   REMARKS
PATUXENT RIVER MOSUNNY   89  78  70 S12       29.76F HX 103
ST INIGOES     SUNNY     89  79  72 S10       29.76F HX 104
LEONARDTOWN*   SUNNY     88  75  66 MISG        N/A  HX  97

$$

MDZ003>005-182300-
NORTH CENTRAL MARYLAND

CITY           SKY/WX    TMP DP  RH WIND       PRES   REMARKS
FREDERICK*     RAIN      81  81 100 CALM      29.81S HX  91
HAGERSTOWN APT CLOUDY    84  73  69 SW6       29.79S HX  90
WESTMINSTER*   CLOUDY    79  75  89 W7        29.82R

$$

MDZ501>502-182300-
WESTERN MARYLAND

CITY           SKY/WX    TMP DP  RH WIND       PRES   REMARKS
OAKLAND*       PTSUNNY   73  64  73 W9G16     29.91S
CUMBERLAND*    SUNNY     88  68  51 SW6       29.83S HX  91

$$

VAZ025>031-182300-
SHENANDOAH VALLEY

CITY           SKY/WX    TMP DP  RH WIND       PRES   REMARKS
WINCHESTER*    CLOUDY    77  72  83 SW5       29.80F
FRONT ROYAL*   CLOUDY    81  72  74 SW6       29.81S
LURAY*         CLOUDY    75  72  88 CALM      29.85S
NEW MARKET*    PTSUNNY   79  73  80 CALM      29.83S
STAUNTON*      PTSUNNY   83  71  66 CALM      29.88R
WAYNESBORO*    CLOUDY    85  71  64 CALM      29.87S HX  90

$$

WVZ021-048>050-054>055-182300-
EASTERN WEST VIRGINIA PANHANDLE

CITY           SKY/WX    TMP DP  RH WIND       PRES   REMARKS
MARTINSBURG    CLOUDY    83  72  69 SW8       29.78S
PETERSBURG*    MOSUNNY   87  72  61 W6        29.83S HX  92

$$

VAZ036>039-050-182300-
CENTRAL FOOTHILLS

CITY           SKY/WX    TMP DP  RH WIND       PRES   REMARKS
CHARLOTTESVILL PTSUNNY   82  77  84 E5        29.81S HX  90
CULPEPER*      PTSUNNY   83  75  76 NW12G20   29.80R HX  91
ORANGE*        RAIN      79  73  83 W18G33    29.81R
GORDONSVILLE*  CLOUDY    81  73  77 NW6G21    29.80R
WARRENTON*     PTSUNNY   82  74  78 W12       29.78R

$$

VAZ055>057-182300-
NORTH AND CENTRAL PIEDMONT

CITY           SKY/WX    TMP DP  RH WIND       PRES   REMARKS
FREDERICKSBRG* CLOUDY    91  77  63 W3        29.75S HX 104
STAFFORD*      PTSUNNY   85  81  88 W3        29.80S HX 101

$$

NCZ024-NYZ072-PAZ021-071-VAZ022-071-182300-
OTHER REGIONAL OBSERVATIONS

CITY           SKY/WX    TMP DP  RH WIND       PRES   REMARKS
NEW YORK CITY  CLOUDY    79  76  90 VRB3      29.82R
PHILADELPHIA   CLOUDY    86  77  74 S10       29.77S THUNDER HX  97
PITTSBURGH     MOSUNNY   82  61  48 W12       29.84R
ROANOKE        CLOUDY    86  67  52 W9        29.90R
RICHMOND       MOSUNNY   91  77  63 S17       29.78F HX 104
RALEIGH        PTSUNNY   93  72  50 S10       29.84S HX 101

$$

ANZ530>537-182300-
MARINE OBSERVATIONS

STATION/POSITION TIME  TEMP    WIND        PRES
                       AIR SEA DIR/SP/G
                 (UTC) (F)     (DEG/KT/KT) (MB)
THOMAS PT LIGHT  2200   84 81  170/ 21/ 23   N/A
BALT KEY BRIDGE  2148   75     320/  7/ 14 1008.3R
COVE POINT       2148   83     190/ 13/ 16 1008.6F
LEWISETTA        2148   90 86  230/ 12/ 14 1008.0F
SOLOMONS ISLAND  2148   89 81  200/ 12/ 16   N/A
PINEY POINT      2148          210/ 14/ 15   N/A

$$





USA.gov is the U.S. government's official web portal to all federal, state and local government web resources and services.